KC3ROS Weather Reports


Display with metric or nautical units.
time (UTC)temp
F
wind
direction
speed
MPH
gust
MPH
rain 1hr
in
rain 24hr
in
rain mn
in
humidity
%
barometer
mb
20260901015804 76 250 1.0 3.0 0.00 0.00 0.00 93 1018.1
20260901015300 77 218 0.0 0.0 0.00 0.00 0.00 92 1018.3
20260901014759 77 219 0.0 2.0 0.00 0.00 0.00 92 1018.3
20260901014254 77 235 1.0 2.0 0.00 0.00 0.00 92 1018.6
20260901013750 77 252 0.0 2.0 0.00 0.00 0.00 92 1018.2
20260901013246 77 243 0.0 2.0 0.00 0.00 0.00 92 1018.4
20260901012736 77 235 0.0 2.0 0.00 0.00 0.00 92 1018.4
20260901012236 77 230 0.0 2.0 0.00 0.00 0.00 91 1018.3
20260901011732 77 242 0.0 2.0 0.00 0.00 0.00 91 1018.1
20260901011226 77 252 2.0 2.0 0.00 0.00 0.00 91 1018.2
20260901010720 77 259 0.0 2.0 0.00 0.00 0.00 91 1018.3
20260901010215 77 239 0.0 2.0 0.00 0.00 0.00 91 1018.2
20260901005714 77 231 0.0 2.0 0.00 0.00 0.00 91 1018.1
20260901005209 77 242 0.0 2.0 0.00 0.00 0.00 90 1018.2
20260901004708 77 255 0.0 2.0 0.00 0.00 0.00 90 1018.1
20260901004204 77 255 0.0 2.0 0.00 0.00 0.00 90 1017.9
20260901003658 77 225 1.0 2.0 0.00 0.00 0.00 90 1017.9
20260901003157 77 243 1.0 2.0 0.00 0.00 0.00 91 1017.9
20260901002651 77 256 0.0 2.0 0.00 0.00 0.00 90 1018.1
20260901002146 77 268 0.0 1.0 0.00 0.00 0.00 90 1017.8
20260901001642 78 242 0.0 2.0 0.00 0.00 0.00 90 1017.8
20260901001136 78 242 0.0 2.0 0.00 0.00 0.00 89 1017.9
20260901000632 78 217 0.0 2.0 0.00 0.00 0.00 89 1017.8
20260901000121 78 240 0.0 2.0 0.00 0.00 0.00 89 1017.7
20260831235615 78 250 1.0 2.0 0.00 0.00 0.00 90 1017.7
20260831235110 78 237 1.0 2.0 0.00 0.00 0.00 90 1017.8
20260831234604 78 255 2.0 2.0 0.00 0.00 0.00 90 1017.7
20260831234100 78 246 2.0 3.0 0.00 0.00 0.00 89 1017.6
20260831233555 78 231 2.0 2.0 0.00 0.00 0.00 89 1017.7
20260831233051 78 237 1.0 2.0 0.00 0.00 0.00 88 1017.7
20260831232546 78 239 0.0 2.0 0.00 0.00 0.00 89 1017.9
20260831232041 78 245 0.0 2.0 0.00 0.00 0.00 89 1017.8
20260831231538 78 244 2.0 2.0 0.00 0.00 0.00 89 1017.7
20260831231033 78 241 1.0 2.0 0.00 0.00 0.00 88 1017.7
20260831230528 79 249 2.0 2.0 0.00 0.00 0.00 87 1017.9
20260831230023 79 251 1.0 2.0 0.00 0.00 0.00 86 1017.8
20260831225520 80 264 2.0 2.0 0.00 0.00 0.00 85 1017.9
20260831225018 80 269 1.0 2.0 0.00 0.00 0.00 85 1018.0
20260831224513 80 253 1.0 2.0 0.00 0.00 0.00 85 1018.2
20260831224009 80 230 0.0 1.0 0.00 0.00 0.00 84 1018.0
20260831223504 81 252 0.0 2.0 0.00 0.00 0.00 83 1018.0
20260831223000 81 253 0.0 1.0 0.00 0.00 0.00 82 1018.2
20260831222456 81 230 0.0 1.0 0.00 0.00 0.00 81 1018.1
20260831221955 81 252 0.0 1.0 0.00 0.00 0.00 81 1018.1
20260831221451 80 269 0.0 2.0 0.00 0.00 0.00 82 1018.2
20260831220946 80 260 1.0 1.0 0.00 0.00 0.00 83 1018.4
20260831220442 80 269 0.0 2.0 0.00 0.00 0.00 82 1018.1
20260831215937 80 269 0.0 2.0 0.00 0.00 0.00 83 1018.1
20260831215432 80 235 0.0 1.0 0.00 0.00 0.00 83 1018.3
20260831214928 80 242 0.0 2.0 0.00 0.00 0.00 83 1018.1
20260831214426 80 247 1.0 2.0 0.00 0.00 0.00 83 1018.2
20260831213921 80 258 0.0 2.0 0.00 0.00 0.00 82 1017.9
20260831213418 80 246 0.0 2.0 0.00 0.00 0.00 81 1018.2
20260831212918 80 230 0.0 3.0 0.00 0.00 0.00 82 1018.2
20260831212414 81 267 2.0 3.0 0.00 0.00 0.00 81 1018.2
20260831211913 81 241 2.0 3.0 0.00 0.00 0.00 81 1018.2
20260831211408 82 256 1.0 1.0 0.00 0.00 0.00 79 1018.0
20260831210902 82 253 1.0 1.0 0.00 0.00 0.00 78 1018.2
20260831210358 82 264 1.0 3.0 0.00 0.00 0.00 77 1018.1
20260831205853 84 247 3.0 3.0 0.00 0.00 0.00 76 1018.3
20260831205349 82 238 2.0 5.0 0.00 0.00 0.00 76 1018.3
20260831204844 82 262 1.0 3.0 0.00 0.00 0.00 78 1018.5
20260831204343 83 250 2.0 4.0 0.00 0.00 0.00 76 1018.3
20260831203842 85 276 3.0 5.0 0.00 0.00 0.00 72 1018.3
20260831203337 84 255 0.0 3.0 0.00 0.00 0.00 74 1018.4
20260831202835 84 249 2.0 5.0 0.00 0.00 0.00 74 1018.4
20260831202330 84 266 2.0 5.0 0.00 0.00 0.00 72 1018.7
20260831201829 84 216 3.0 5.0 0.00 0.00 0.00 73 1018.6
20260831201328 84 275 3.0 5.0 0.00 0.00 0.00 73 1018.8
20260831200824 84 222 2.0 5.0 0.00 0.00 0.00 74 1018.9
20260831200319 83 172 1.0 4.0 0.00 0.00 0.00 75 1018.6
20260831195815 83 295 2.0 4.0 0.00 0.00 0.00 74 1018.9
20260831195310 83 252 1.0 6.0 0.00 0.00 0.00 76 1018.8
20260831194806 82 259 1.0 3.0 0.00 0.00 0.00 77 1018.8
20260831194301 81 250 2.0 4.0 0.00 0.00 0.00 78 1019.0
20260831193755 79 246 1.0 4.0 0.00 0.00 0.00 82 1018.8
20260831193250 78 253 2.0 3.0 0.00 0.00 0.00 83 1019.0
20260831192745 79 282 0.0 3.0 0.00 0.00 0.00 84 1019.3
20260831192240 79 240 0.0 4.0 0.00 0.00 0.00 84 1019.2
20260831191736 79 262 0.0 3.0 0.00 0.00 0.00 83 1019.2
20260831191233 79 240 0.0 2.0 0.00 0.00 0.00 82 1019.0
20260831190732 79 258 0.0 3.0 0.00 0.00 0.00 82 1019.1
20260831190227 79 242 3.0 4.0 0.00 0.00 0.00 79 1019.1
20260831185722 80 247 3.0 4.0 0.00 0.00 0.00 80 1019.2
20260831185218 80 257 0.0 2.0 0.00 0.00 0.00 80 1019.2
20260831184717 80 254 1.0 4.0 0.00 0.00 0.00 79 1019.2
20260831184212 80 260 1.0 5.0 0.00 0.00 0.00 77 1019.4
20260831183711 81 247 2.0 5.0 0.00 0.00 0.00 79 1019.2
20260831183206 80 261 2.0 3.0 0.00 0.00 0.00 80 1019.4
20260831182705 81 258 3.0 4.0 0.00 0.00 0.00 81 1019.6
20260831182201 80 245 2.0 5.0 0.00 0.00 0.00 81 1019.5
20260831181655 80 269 0.0 3.0 0.00 0.00 0.00 81 1019.1
20260831181150 80 231 0.0 3.0 0.00 0.00 0.00 82 1019.4
20260831180645 80 237 1.0 4.0 0.00 0.00 0.00 80 1019.4
20260831180140 80 254 3.0 3.0 0.00 0.00 0.00 80 1019.4
20260831175634 80 251 2.0 4.0 0.00 0.00 0.00 80 1019.4
20260831175131 80 242 0.0 5.0 0.00 0.00 0.00 80 1019.3
20260831174625 80 284 2.0 7.0 0.00 0.00 0.00 77 1019.5
20260831174120 80 300 1.0 6.0 0.00 0.00 0.00 73 1019.3
20260831173618 80 262 5.0 10.0 0.00 0.00 0.00 74 1019.5
20260831173114 81 222 3.0 5.0 0.00 0.00 0.00 75 1019.3
20260831172609 81 284 1.0 9.0 0.00 0.00 0.00 72 1019.5
20260831172103 82 260 6.0 8.0 0.00 0.00 0.00 71 1019.3
20260831171559 83 229 0.0 5.0 0.00 0.00 0.00 71 1019.4
20260831171056 82 277 2.0 6.0 0.00 0.00 0.00 73 1019.6
20260831170552 82 244 1.0 7.0 0.00 0.00 0.00 76 1019.2
20260831170050 82 224 4.0 8.0 0.00 0.00 0.00 75 1019.2
20260831165549 82 265 3.0 9.0 0.00 0.00 0.00 75 1019.4
20260831165046 81 335 1.0 7.0 0.00 0.00 0.00 78 1019.4
20260831164542 83 244 5.0 7.0 0.00 0.00 0.00 76 1019.6
20260831164037 81 299 0.0 8.0 0.00 0.00 0.00 80 1019.4
20260831163532 81 279 3.0 6.0 0.00 0.00 0.00 79 1019.5
20260831163028 80 286 3.0 8.0 0.00 0.00 0.00 81 1019.5
20260831162526 79 222 3.0 6.0 0.00 0.00 0.00 82 1019.5
20260831162025 80 237 3.0 3.0 0.00 0.00 0.00 83 1019.9
20260831161521 80 318 0.0 4.0 0.00 0.00 0.00 84 1019.6
20260831161017 79 75 0.0 6.0 0.00 0.00 0.00 83 1019.7
20260831160516 79 264 2.0 5.0 0.00 0.00 0.00 83 1020.1
20260831160012 78 254 2.0 3.0 0.00 0.00 0.00 86 1020.3
20260831155506 78 260 2.0 4.0 0.00 0.00 0.00 85 1020.1
20260831155001 78 262 3.0 7.0 0.00 0.00 0.00 84 1020.0
20260831154458 78 356 1.0 3.0 0.00 0.00 0.00 85 1019.9
20260831153956 78 253 3.0 4.0 0.00 0.00 0.00 87 1020.0
20260831153452 77 233 3.0 5.0 0.00 0.00 0.00 88 1020.0
20260831152949 76 259 3.0 4.0 0.00 0.00 0.00 88 1020.2
20260831152444 75 249 2.0 3.0 0.00 0.00 0.00 89 1020.2
20260831151939 75 267 3.0 4.0 0.00 0.00 0.00 89 1020.1
20260831151438 75 237 2.0 4.0 0.00 0.00 0.00 89 1020.0
20260831150933 74 257 3.0 3.0 0.00 0.00 0.00 89 1019.9
20260831150429 74 255 1.0 4.0 0.00 0.00 0.00 89 1019.7
20260831145927 74 240 0.0 5.0 0.00 0.00 0.00 90 1019.6
20260831145424 74 246 3.0 5.0 0.00 0.00 0.00 90 1019.9
20260831144919 73 239 2.0 3.0 0.00 0.00 0.00 91 1019.6
20260831144409 72 253 2.0 6.0 0.00 0.00 0.00 92 1019.7
20260831143904 72 268 2.0 3.0 0.00 0.00 0.00 92 1019.7
20260831143359 72 247 1.0 2.0 0.00 0.00 0.00 92 1019.9
20260831142855 72 104 0.0 2.0 0.00 0.00 0.00 93 1019.6
20260831142349 72 284 0.0 1.0 0.00 0.00 0.00 93 1019.6
20260831141844 71 55 0.0 1.0 0.00 0.00 0.00 92 1019.7
20260831141339 71 87 1.0 3.0 0.00 0.00 0.00 93 1019.7
20260831140833 71 304 0.0 1.0 0.00 0.00 0.00 93 1019.9
20260831140328 70 269 0.0 2.0 0.00 0.00 0.00 94 1019.6
20260831135827 70 269 0.0 0.0 0.00 0.00 0.00 94 1019.9
20260831135322 70 246 0.0 1.0 0.00 0.00 0.00 94 1019.5
20260831134817 69 309 0.0 1.0 0.00 0.00 0.00 94 1019.9
20260831134314 69 142 0.0 0.0 0.00 0.00 0.00 94 1019.7
20260831133813 69 103 0.0 1.0 0.00 0.00 0.00 95 1020.0
20260831133312 69 84 0.0 2.0 0.00 0.00 0.00 94 1019.9
20260831132808 69 75 0.0 2.0 0.00 0.00 0.00 94 1019.9
20260831132306 69 125 0.0 2.0 0.00 0.00 0.00 94 1019.7
20260831131757 69 104 0.0 1.0 0.00 0.00 0.00 95 1020.0
20260831131253 68 49 0.0 2.0 0.00 0.00 0.00 95 1019.9
20260831130748 68 55 0.0 1.0 0.00 0.00 0.00 95 1020.1
20260831130244 68 112 0.0 2.0 0.00 0.00 0.00 95 1020.0
20260831125742 68 111 1.0 2.0 0.00 0.00 0.00 95 1020.1
20260831125238 68 92 0.0 2.0 0.00 0.00 0.00 95 1020.0
20260831124732 68 63 0.0 2.0 0.00 0.00 0.00 95 1019.9
20260831124228 68 91 0.0 2.0 0.00 0.00 0.00 95 1019.9
20260831123722 68 62 0.0 2.0 0.00 0.00 0.00 95 1020.0
20260831123221 68 51 0.0 1.0 0.00 0.00 0.00 95 1019.9
20260831122716 68 28 0.0 1.0 0.00 0.00 0.00 95 1020.0
20260831122212 68 30 0.0 1.0 0.00 0.00 0.00 95 1019.9
20260831121711 67 99 1.0 2.0 0.00 0.00 0.00 96 1019.9
20260831121208 67 74 0.0 2.0 0.00 0.00 0.00 96 1020.0
20260831120703 67 89 0.0 2.0 0.00 0.00 0.00 96 1020.0
20260831120158 67 115 0.0 1.0 0.00 0.00 0.00 96 1019.5
20260831115653 67 129 0.0 1.0 0.00 0.00 0.00 96 1019.5
20260831115149 67 129 0.0 2.0 0.00 0.00 0.00 96 1019.7
20260831114648 67 121 0.0 2.0 0.00 0.00 0.00 96 1019.9
20260831114143 67 100 2.0 3.0 0.00 0.00 0.00 95 1019.7
20260831113643 67 76 0.0 2.0 0.00 0.00 0.00 95 1019.7
20260831113138 67 116 0.0 2.0 0.00 0.00 0.00 95 1019.6
20260831112637 67 50 0.0 1.0 0.00 0.00 0.00 95 1020.0
20260831112132 67 89 0.0 2.0 0.00 0.00 0.00 95 1019.5
20260831111628 67 80 0.0 2.0 0.00 0.00 0.00 95 1019.6
20260831111124 67 60 1.0 2.0 0.00 0.00 0.00 95 1019.6
20260831110619 67 89 0.0 1.0 0.00 0.00 0.00 95 1019.4
20260831110115 67 89 0.0 1.0 0.00 0.00 0.00 96 1019.4
20260831105613 67 124 0.0 2.0 0.00 0.00 0.00 96 1019.4
20260831105108 67 63 0.0 2.0 0.00 0.00 0.00 96 1019.5
20260831104604 67 97 1.0 2.0 0.00 0.00 0.00 96 1019.3
20260831104059 67 11 0.0 1.0 0.00 0.00 0.00 96 1019.3
20260831103554 67 110 0.0 1.0 0.00 0.00 0.00 95 1019.2
20260831103051 67 60 0.0 2.0 0.00 0.00 0.00 95 1019.3
20260831102544 67 55 0.0 1.0 0.00 0.00 0.00 95 1019.3
20260831102040 67 66 0.0 0.0 0.00 0.00 0.00 95 1019.3
20260831101535 67 66 0.0 1.0 0.00 0.00 0.00 95 1019.1
20260831101031 67 13 0.0 2.0 0.00 0.00 0.00 95 1019.0
20260831100527 67 50 0.0 1.0 0.00 0.00 0.00 94 1019.3
20260831100023 67 53 0.0 1.0 0.00 0.00 0.00 94 1019.2
20260831095521 67 9 0.0 1.0 0.00 0.00 0.00 94 1019.2
20260831095016 67 37 0.0 1.0 0.00 0.00 0.00 94 1019.2
20260831094512 67 52 0.0 1.0 0.00 0.00 0.00 94 1019.2
20260831094008 67 142 0.0 1.0 0.00 0.00 0.00 94 1019.1
20260831093508 67 25 0.0 1.0 0.00 0.00 0.00 94 1019.1
20260831093004 67 50 0.0 1.0 0.00 0.00 0.00 94 1019.2
20260831092459 67 7 0.0 1.0 0.00 0.00 0.00 94 1019.2
20260831091955 67 24 0.0 1.0 0.00 0.00 0.00 94 1019.0
20260831091450 67 352 0.0 1.0 0.00 0.00 0.00 94 1019.1
20260831090944 67 230 0.0 1.0 0.00 0.00 0.00 94 1019.0
20260831090441 67 164 0.0 0.0 0.00 0.00 0.00 93 1019.2
20260831085937 68 154 0.0 1.0 0.00 0.00 0.00 93 1019.2
20260831085432 68 150 0.0 1.0 0.00 0.00 0.00 93 1019.0
20260831084931 68 75 0.0 1.0 0.00 0.00 0.00 93 1019.0
20260831084427 67 117 0.0 1.0 0.00 0.00 0.00 93 1019.0
20260831083924 67 230 0.0 0.0 0.00 0.00 0.00 94 1019.1
20260831083419 67 230 0.0 1.0 0.00 0.00 0.00 94 1019.1
20260831082918 67 62 0.0 1.0 0.00 0.00 0.00 94 1019.0
20260831082412 67 129 0.0 0.0 0.00 0.00 0.00 94 1019.0
20260831081908 67 147 0.0 1.0 0.00 0.00 0.00 94 1019.0
20260831081403 67 203 0.0 1.0 0.00 0.00 0.00 94 1019.0
20260831080859 67 154 0.0 1.0 0.00 0.00 0.00 95 1019.1
20260831080354 67 129 0.0 0.0 0.00 0.00 0.00 95 1019.0
20260831075849 67 142 0.0 1.0 0.00 0.00 0.00 95 1019.0
20260831075344 67 235 0.0 1.0 0.00 0.00 0.00 95 1019.2
20260831074839 67 236 1.0 1.0 0.00 0.00 0.00 95 1019.1
20260831074338 67 212 0.0 2.0 0.00 0.00 0.00 95 1019.1
20260831073834 67 37 0.0 0.0 0.00 0.00 0.00 95 1019.1
20260831073333 67 37 0.0 0.0 0.00 0.00 0.00 94 1019.1
20260831072828 67 37 0.0 0.0 0.00 0.00 0.00 94 1019.2
20260831072324 67 37 0.0 0.0 0.00 0.00 0.00 94 1019.4
20260831071820 67 37 0.0 0.0 0.00 0.00 0.00 94 1019.3
20260831071319 67 36 0.0 1.0 0.00 0.00 0.00 94 1019.5
20260831070814 68 62 0.0 0.0 0.00 0.00 0.00 94 1019.4
20260831070313 67 56 1.0 2.0 0.00 0.00 0.00 94 1019.5
20260831065812 67 50 0.0 1.0 0.00 0.00 0.00 94 1019.3
20260831065310 68 25 0.0 0.0 0.00 0.00 0.00 94 1019.3
20260831064806 68 22 0.0 1.0 0.00 0.00 0.00 93 1019.5
20260831064301 68 50 0.0 1.0 0.00 0.00 0.00 93 1019.4
20260831063757 68 129 0.0 1.0 0.00 0.00 0.00 93 1019.4
20260831063251 68 7 0.0 1.0 0.00 0.00 0.00 93 1019.6
20260831062746 68 15 0.0 1.0 0.00 0.00 0.00 92 1019.7
20260831062241 68 130 0.0 2.0 0.00 0.00 0.00 92 1019.6
20260831061739 68 120 0.0 1.0 0.00 0.00 0.00 92 1019.7
20260831061234 68 50 0.0 1.0 0.00 0.00 0.00 92 1019.7
20260831060730 68 124 0.0 1.0 0.00 0.00 0.00 93 1019.9
20260831060224 68 107 2.0 2.0 0.00 0.00 0.00 93 1019.7
20260831055719 68 66 0.0 1.0 0.00 0.00 0.00 93 1020.1
20260831055213 68 89 0.0 1.0 0.00 0.00 0.00 94 1020.3
20260831054714 68 129 0.0 2.0 0.00 0.00 0.00 94 1020.2
20260831054208 68 44 0.0 3.0 0.00 0.00 0.00 94 1019.7
20260831053702 68 107 3.0 4.0 0.00 0.00 0.00 94 1020.0
20260831053200 68 129 0.0 1.0 0.00 0.00 0.00 94 1020.2
20260831052655 68 117 0.0 1.0 0.00 0.00 0.00 94 1020.3
20260831052154 68 104 0.0 1.0 0.00 0.00 0.00 93 1020.2
20260831051652 68 67 0.0 1.0 0.00 0.00 0.00 92 1020.1
20260831051151 68 117 0.0 1.0 0.00 0.00 0.00 92 1020.3
20260831050646 68 7 0.0 0.0 0.00 0.00 0.00 91 1020.2
20260831050145 68 0 0.0 1.0 0.00 0.00 0.00 91 1020.2
20260831045645 68 50 0.0 1.0 0.00 0.00 0.00 92 1020.2
20260831045139 68 104 0.0 0.0 0.00 0.00 0.00 91 1020.1
20260831044634 68 75 0.0 0.0 0.00 0.00 0.00 91 1020.2
20260831044129 68 75 0.0 0.0 0.00 0.00 0.00 91 1020.2
20260831043625 68 129 0.0 1.0 0.00 0.00 0.00 91 1020.0
20260831043121 68 116 0.0 1.0 0.00 0.00 0.00 91 1020.2
20260831042620 68 117 0.0 0.0 0.00 0.00 0.00 91 1020.1
20260831042115 68 113 0.0 2.0 0.00 0.00 0.00 91 1020.1
20260831041610 69 150 0.0 0.0 0.00 0.00 0.00 91 1020.3
20260831041109 69 50 0.0 0.0 0.00 0.00 0.00 90 1020.4
20260831040604 69 50 0.0 0.0 0.00 0.00 0.00 90 1020.4
20260831040057 69 100 1.0 1.0 0.00 0.00 0.00 90 1020.3
20260831035549 69 73 1.0 1.0 0.00 0.00 0.00 90 1020.2
20260831035045 69 45 0.0 3.0 0.00 0.00 0.00 90 1020.2
20260831034544 69 86 2.0 3.0 0.00 0.00 0.00 91 1020.2
20260831034040 69 92 2.0 3.0 0.00 0.00 0.00 92 1020.3
20260831033535 69 101 2.0 3.0 0.00 0.00 0.00 92 1020.3
20260831033031 69 103 2.0 2.0 0.00 0.00 0.00 92 1020.4
20260831032530 69 84 1.0 2.0 0.00 0.00 0.00 92 1020.7
20260831032025 69 89 1.0 3.0 0.00 0.00 0.00 92 1020.7
20260831031519 70 44 0.0 1.0 0.00 0.00 0.00 92 1020.9
20260831031018 70 93 3.0 3.0 0.00 0.00 0.00 92 1020.7
20260831030518 70 81 0.0 2.0 0.00 0.00 0.00 92 1021.0
20260831030018 70 29 1.0 3.0 0.00 0.00 0.00 92 1021.2
20260831025515 70 8 2.0 2.0 0.00 0.00 0.00 92 1021.3
20260831025011 70 72 1.0 2.0 0.00 0.00 0.00 91 1021.1
20260831024507 70 37 1.0 2.0 0.00 0.00 0.00 91 1021.3
20260831024001 71 33 2.0 2.0 0.00 0.00 0.00 91 1021.5
20260831023458 71 16 1.0 3.0 0.00 0.00 0.00 91 1021.4
20260831022953 71 9 2.0 3.0 0.00 0.00 0.00 90 1021.6
20260831022452 71 5 2.0 3.0 0.00 0.00 0.00 90 1021.7
20260831021948 71 352 2.0 4.0 0.00 0.00 0.00 90 1021.4
20260831021446 71 4 2.0 3.0 0.00 0.00 0.00 90 1021.6
20260831020943 71 8 2.0 3.0 0.00 0.00 0.00 90 1021.6
20260831020443 71 14 2.0 3.0 0.00 0.00 0.00 90 1021.4